TimeMST,TemperatureF,Dew PointF,Humidity,Sea Level PressureIn,VisibilityMPH,Wind Direction,Wind SpeedMPH,Gust SpeedMPH,PrecipitationIn,Events,Conditions,WindDirDegrees,DateUTC
12:53 AM,18.0,8.1,65,30.48,10.0,South,8.1,-,N/A,,Partly Cloudy,170,2012-12-20 07:53:00
1:53 AM,16.0,7.0,68,30.49,10.0,SSE,5.8,-,N/A,,Clear,160,2012-12-20 08:53:00
2:53 AM,16.0,6.1,65,30.49,10.0,SSE,5.8,-,N/A,,Clear,160,2012-12-20 09:53:00
3:53 AM,16.0,6.1,65,30.49,10.0,SSW,8.1,-,N/A,,Clear,200,2012-12-20 10:53:00
4:53 AM,15.1,6.1,68,30.49,10.0,Calm,Calm,-,N/A,,Scattered Clouds,0,2012-12-20 11:53:00
5:53 AM,15.1,8.1,74,30.51,10.0,Calm,Calm,-,N/A,,Clear,0,2012-12-20 12:53:00
6:53 AM,17.1,7.0,65,30.50,10.0,South,4.6,-,N/A,,Clear,180,2012-12-20 13:53:00
7:53 AM,17.1,7.0,65,30.50,10.0,South,4.6,-,N/A,,Partly Cloudy,180,2012-12-20 14:53:00
8:53 AM,17.1,10.0,74,30.51,10.0,Calm,Calm,-,N/A,,Clear,0,2012-12-20 15:53:00
9:53 AM,18.0,10.0,71,30.51,10.0,Calm,Calm,-,N/A,,Clear,0,2012-12-20 16:53:00
10:53 AM,21.0,7.0,55,30.49,10.0,Calm,Calm,-,N/A,,Clear,0,2012-12-20 17:53:00
11:53 AM,24.1,10.0,55,30.45,-9999.0,NNE,5.8,-,N/A,,Unknown,20,2012-12-20 18:53:00
12:53 PM,24.1,8.1,51,30.43,10.0,NE,6.9,-,N/A,,Clear,50,2012-12-20 19:53:00
1:53 PM,26.1,7.0,44,30.39,10.0,NE,10.4,-,N/A,,Clear,50,2012-12-20 20:53:00
2:53 PM,27.0,8.1,45,30.36,10.0,NE,9.2,-,N/A,,Clear,40,2012-12-20 21:53:00
3:53 PM,27.0,8.1,45,30.35,10.0,NE,10.4,-,N/A,,Clear,40,2012-12-20 22:53:00
4:53 PM,23.0,10.0,58,30.37,10.0,NE,5.8,-,N/A,,Clear,40,2012-12-20 23:53:00
5:53 PM,21.0,10.0,63,30.37,10.0,ENE,4.6,-,N/A,,Clear,60,2012-12-21 00:53:00
6:53 PM,19.0,10.0,68,30.36,10.0,ENE,4.6,-,N/A,,Clear,60,2012-12-21 01:53:00
7:53 PM,17.1,9.0,71,30.36,10.0,North,5.8,-,N/A,,Clear,10,2012-12-21 02:53:00
8:53 PM,14.0,7.0,74,30.37,10.0,NE,4.6,-,N/A,,Clear,50,2012-12-21 03:53:00
9:53 PM,12.9,6.1,74,30.36,10.0,East,4.6,-,N/A,,Clear,80,2012-12-21 04:53:00
10:53 PM,12.0,6.1,77,30.35,10.0,NE,4.6,-,N/A,,Clear,50,2012-12-21 05:53:00
11:53 PM,10.9,6.1,81,30.34,10.0,North,4.6,-,N/A,,Clear,10,2012-12-21 06:53:00